Location: Bydgoszcz
(53.1640°N, 17.9142°E)
Time: 09:46:16
(UTC+02:00)

PCSat - Pass Details

Date: 26 April 2024
Orbit: 783 x 792 km, 67.1° (Epoch: 24 May)

Event Time Altitude Azimuth Distance (km) Brightness Sun altitude
Rises 22:31:54 0° 285° (WNW) 3,290 13.6 -17.0°
Reaches altitude 10° 22:34:59 10° 302° (WNW) 2,364 13.0 -17.3°
Maximum altitude 22:38:55 20° 349° (N) 1,771 12.2 -17.6°
Drops below altitude 10° 22:42:53 10° 36° (NE) 2,369 12.3 -17.9°
Sets 22:45:58 0° 53° (NE) 3,301 12.9 -18.2°
